FW2297 Weather Reports


Display with metric or nautical units.
time (UTC)temp
F
wind
direction
speed
MPH
gust
MPH
rain 1hr
in
rain 24hr
in
rain mn
in
humidity
%
barometer
mb
20260505215052 62 0 4.0 16.0 0.02 0.02 0.02 82 1006.9
20260505214618 62 0 0.0 13.0 0.02 0.02 0.02 82 1006.6
20260505214051 62 0 3.0 13.0 0.02 0.02 0.02 80 1006.4
20260505213551 63 0 1.0 17.0 0.02 0.02 0.02 78 1006.1
20260505213100 65 0 2.0 27.0 0.01 0.01 0.01 75 1005.5
20260505212553 67 242 9.0 27.0 0.00 0.00 0.00 68 1005.0
20260505212048 72 326 14.0 27.0 0.00 0.00 0.00 55 1004.7
20260505211553 77 231 12.0 24.0 0.00 0.00 0.00 42 1004.5
20260505211049 79 289 5.0 18.0 0.00 0.00 0.00 33 1003.0
20260505210547 79 0 1.0 17.0 0.00 0.00 0.00 33 1002.6
20260505210058 79 0 0.0 14.0 0.00 0.00 0.00 33 1002.3
20260505205552 79 0 1.0 14.0 0.00 0.00 0.00 33 1002.3
20260505205056 80 0 3.0 14.0 0.00 0.00 0.00 32 1002.3
20260505204604 80 271 0.0 21.0 0.00 0.00 0.00 32 1002.1
20260505204051 80 324 6.0 21.0 0.00 0.00 0.00 31 1002.1
20260505203551 81 266 3.0 17.0 0.00 0.00 0.00 32 1002.2
20260505203055 81 246 1.0 19.0 0.00 0.00 0.00 32 1002.4
20260505202548 81 246 2.0 19.0 0.00 0.00 0.00 30 1002.2
20260505202048 81 230 3.0 19.0 0.00 0.00 0.00 30 1002.2
20260505201556 81 0 2.0 15.0 0.00 0.00 0.00 31 1002.4
20260505201049 82 321 1.0 15.0 0.00 0.00 0.00 30 1002.4
20260505200548 82 0 3.0 19.0 0.00 0.00 0.00 30 1002.2
20260505200104 83 269 6.0 19.0 0.00 0.00 0.00 29 1002.3
20260505195550 83 0 2.0 13.0 0.00 0.00 0.00 29 1002.3
20260505195050 83 225 0.0 13.0 0.00 0.00 0.00 30 1002.3
20260505194602 83 231 2.0 15.0 0.00 0.00 0.00 29 1002.3
20260505194052 82 0 2.0 15.0 0.00 0.00 0.00 31 1002.5
20260505193551 81 181 3.0 15.0 0.00 0.00 0.00 30 1002.7
20260505193057 81 293 1.0 12.0 0.00 0.00 0.00 31 1002.8
20260505192551 82 0 3.0 18.0 0.00 0.00 0.00 31 1002.6
20260505192050 82 0 3.0 18.0 0.00 0.00 0.00 31 1002.7
20260505191556 82 293 4.0 18.0 0.00 0.00 0.00 30 1002.7
20260505191050 81 257 5.0 16.0 0.00 0.00 0.00 31 1002.7
20260505190548 81 255 0.0 13.0 0.00 0.00 0.00 31 1002.8
20260505190054 81 0 1.0 15.0 0.00 0.00 0.00 31 1002.8
20260505185548 81 0 2.0 15.0 0.00 0.00 0.00 31 1002.8
20260505185049 81 0 4.0 15.0 0.00 0.00 0.00 31 1003.0
20260505184552 82 288 4.0 17.0 0.00 0.00 0.00 31 1003.1
20260505184052 81 255 5.0 20.0 0.00 0.00 0.00 31 1003.2
20260505183555 81 238 4.0 20.0 0.00 0.00 0.00 31 1003.3
20260505183055 80 0 6.0 19.0 0.00 0.00 0.00 33 1003.5
20260505182547 80 0 0.0 14.0 0.00 0.00 0.00 33 1003.7
20260505182051 80 0 1.0 16.0 0.00 0.00 0.00 34 1003.6
20260505181553 80 0 3.0 16.0 0.00 0.00 0.00 33 1003.8
20260505181052 79 0 2.0 16.0 0.00 0.00 0.00 32 1003.7
20260505180553 80 0 5.0 15.0 0.00 0.00 0.00 32 1003.7
20260505180109 81 219 3.0 13.0 0.00 0.00 0.00 32 1003.8
20260505175548 82 0 3.0 13.0 0.00 0.00 0.00 33 1003.7
20260505175048 81 308 1.0 11.0 0.00 0.00 0.00 34 1003.9
20260505174601 82 285 2.0 11.0 0.00 0.00 0.00 32 1004.2
20260505174049 82 0 1.0 13.0 0.00 0.00 0.00 34 1004.2
20260505173550 82 0 4.0 13.0 0.00 0.00 0.00 33 1004.0
20260505173052 82 262 3.0 12.0 0.00 0.00 0.00 32 1004.3
20260505172547 82 264 0.0 11.0 0.00 0.00 0.00 33 1004.3
20260505172050 82 0 0.0 11.0 0.00 0.00 0.00 34 1004.3
20260505171556 82 261 0.0 17.0 0.00 0.00 0.00 35 1004.4
20260505171049 82 237 0.0 17.0 0.00 0.00 0.00 34 1004.6
20260505170552 81 255 3.0 20.0 0.00 0.00 0.00 33 1004.6
20260505170056 81 0 4.0 20.0 0.00 0.00 0.00 34 1004.4
20260505165550 81 0 0.0 14.0 0.00 0.00 0.00 35 1004.5
20260505165050 81 261 2.0 14.0 0.00 0.00 0.00 34 1004.8
20260505164555 81 0 2.0 14.0 0.00 0.00 0.00 34 1004.6
20260505164051 81 0 4.0 20.0 0.00 0.00 0.00 34 1004.7
20260505163551 81 0 0.0 20.0 0.00 0.00 0.00 36 1004.7
20260505163054 80 287 7.0 20.0 0.00 0.00 0.00 35 1004.8
20260505162547 79 300 4.0 13.0 0.00 0.00 0.00 37 1004.9
20260505162050 79 243 1.0 14.0 0.00 0.00 0.00 36 1005.1
20260505161607 79 255 2.0 14.0 0.00 0.00 0.00 37 1005.0
20260505161048 78 279 5.0 14.0 0.00 0.00 0.00 38 1005.3
20260505160550 78 0 0.0 17.0 0.00 0.00 0.00 39 1005.5
20260505160103 78 0 1.0 17.0 0.00 0.00 0.00 39 1005.6
20260505153056 74 231 1.0 8.0 0.00 0.00 0.00 43 1006.5
20260505152547 74 312 0.0 14.0 0.00 0.00 0.00 43 1006.6
20260505152051 74 0 0.0 14.0 0.00 0.00 0.00 42 1006.5
20260505151601 74 220 4.0 14.0 0.00 0.00 0.00 42 1006.5
20260505151050 75 0 1.0 11.0 0.00 0.00 0.00 42 1006.5
20260505150551 75 0 0.0 11.0 0.00 0.00 0.00 42 1006.5
20260505140547 68 0 0.0 2.0 0.00 0.00 0.00 48 1007.0
20260505124559 57 0 0.0 0.0 0.00 0.00 0.00 67 1007.3
20260505124054 56 0 0.0 0.0 0.00 0.00 0.00 69 1007.3
20260505123548 55 0 0.0 0.0 0.00 0.00 0.00 69 1007.2
20260505123103 54 0 0.0 0.0 0.00 0.00 0.00 70 1007.5
20260505122550 54 0 0.0 0.0 0.00 0.00 0.00 71 1007.7
20260505122050 53 0 0.0 0.0 0.00 0.00 0.00 73 1007.5
20260505121557 52 0 0.0 0.0 0.00 0.00 0.00 73 1007.6
20260505121052 52 0 0.0 0.0 0.00 0.00 0.00 74 1007.7
20260505120552 52 0 0.0 0.0 0.00 0.00 0.00 75 1007.6
20260505120058 50 0 0.0 0.0 0.00 0.00 0.00 77 1007.7
20260505115551 49 0 0.0 0.0 0.00 0.00 0.00 81 1007.6
20260505115051 48 0 0.0 0.0 0.00 0.00 0.00 81 1007.8
20260505114555 47 0 0.0 0.0 0.00 0.00 0.00 82 1007.9
20260505114052 47 0 0.0 0.0 0.00 0.00 0.00 83 1007.7
20260505113552 46 0 0.0 0.0 0.00 0.00 0.00 84 1007.9
20260505113110 46 0 0.0 0.0 0.00 0.00 0.00 84 1007.6
20260505112553 46 0 0.0 0.0 0.00 0.00 0.00 85 1007.3
20260505112052 45 0 0.0 0.0 0.00 0.00 0.00 86 1007.5
20260505111556 45 0 0.0 0.0 0.00 0.00 0.00 87 1007.4
20260505111052 44 0 0.0 0.0 0.00 0.00 0.00 87 1007.5
20260505110551 44 0 0.0 0.0 0.00 0.00 0.00 88 1007.6
20260505102052 42 0 0.0 0.0 0.00 0.00 0.00 88 1007.3
20260505101554 42 0 0.0 0.0 0.00 0.00 0.00 88 1007.5
20260505101052 42 0 0.0 0.0 0.00 0.00 0.00 88 1007.4
20260505100552 42 0 0.0 0.0 0.00 0.00 0.00 87 1007.7
20260505100100 42 0 0.0 0.0 0.00 0.00 0.00 87 1007.5
20260505095551 42 0 0.0 0.0 0.00 0.00 0.00 87 1007.6
20260505095051 42 0 0.0 0.0 0.00 0.00 0.00 87 1007.5
20260505094552 42 0 0.0 0.0 0.00 0.00 0.00 86 1007.4
20260505094051 42 0 0.0 0.0 0.00 0.00 0.00 86 1007.6
20260505093551 43 0 0.0 0.0 0.00 0.00 0.00 86 1007.6
20260505093053 43 0 0.0 0.0 0.00 0.00 0.00 86 1007.7
20260505092551 43 0 0.0 0.0 0.00 0.00 0.00 85 1007.8
20260505092051 43 0 0.0 0.0 0.00 0.00 0.00 85 1007.7
20260505091607 43 0 0.0 0.0 0.00 0.00 0.00 85 1007.7
20260505091050 43 0 0.0 0.0 0.00 0.00 0.00 85 1007.7
20260505090550 43 0 0.0 0.0 0.00 0.00 0.00 85 1007.7
20260505090054 43 0 0.0 0.0 0.00 0.00 0.00 85 1007.6
20260505085552 44 0 0.0 0.0 0.00 0.00 0.00 84 1007.7
20260505085051 44 0 0.0 0.0 0.00 0.00 0.00 84 1007.7
20260505084555 44 0 0.0 0.0 0.00 0.00 0.00 83 1007.7
20260505084051 44 0 0.0 0.0 0.00 0.00 0.00 83 1007.6
20260505083551 44 0 0.0 0.0 0.00 0.00 0.00 83 1007.6
20260505083052 44 0 0.0 0.0 0.00 0.00 0.00 83 1007.4
20260505082551 44 0 0.0 0.0 0.00 0.00 0.00 82 1007.6
20260505082051 44 0 0.0 0.0 0.00 0.00 0.00 82 1007.6
20260505081600 44 0 0.0 0.0 0.00 0.00 0.00 82 1007.7
20260505081051 45 0 0.0 0.0 0.00 0.00 0.00 82 1007.7
20260505080550 45 0 0.0 0.0 0.00 0.00 0.00 81 1007.8
20260505080107 45 0 0.0 0.0 0.00 0.00 0.00 81 1007.8
20260505075551 45 0 0.0 0.0 0.00 0.00 0.00 80 1007.8
20260505075051 46 0 0.0 0.0 0.00 0.00 0.00 79 1007.8
20260505074551 46 0 0.0 0.0 0.00 0.00 0.00 79 1007.8
20260505074050 46 0 0.0 0.0 0.00 0.00 0.00 78 1007.7
20260505073551 46 0 0.0 0.0 0.00 0.00 0.00 78 1007.6
20260505073051 46 0 0.0 0.0 0.00 0.00 0.00 78 1007.7
20260505072551 46 0 0.0 0.0 0.00 0.00 0.00 78 1007.7
20260505072051 46 0 0.0 0.0 0.00 0.00 0.00 77 1007.7
20260505071558 47 0 0.0 0.0 0.00 0.00 0.00 77 1007.9
20260505071052 47 0 0.0 0.0 0.00 0.00 0.00 78 1007.8
20260505070551 47 0 0.0 0.0 0.00 0.00 0.00 78 1007.8
20260505070054 47 0 0.0 0.0 0.00 0.00 0.00 77 1007.8
20260505065551 47 0 0.0 0.0 0.00 0.00 0.00 76 1007.8
20260505065050 47 0 0.0 0.0 0.00 0.00 0.00 75 1007.8
20260505064554 48 0 0.0 0.0 0.00 0.00 0.00 74 1007.8
20260505064051 48 0 0.0 0.0 0.00 0.00 0.00 75 1007.8
20260505063551 48 0 0.0 0.0 0.00 0.00 0.00 75 1007.8
20260505063123 47 0 0.0 0.0 0.00 0.00 0.00 75 1007.8
20260505062551 47 0 0.0 0.0 0.00 0.00 0.00 75 1007.8
20260505062052 47 0 0.0 0.0 0.00 0.00 0.00 75 1007.9
20260505061639 47 0 0.0 0.0 0.00 0.00 0.00 75 1007.8
20260505061051 48 0 0.0 0.0 0.00 0.00 0.00 73 1007.9
20260505060554 48 0 0.0 0.0 0.00 0.00 0.00 73 1007.8
20260505055551 48 0 0.0 0.0 0.00 0.00 0.00 73 1007.9
20260505055051 48 0 0.0 0.0 0.00 0.00 0.00 72 1007.9
20260505054559 49 0 0.0 0.0 0.00 0.00 0.00 71 1008.0
20260505054050 49 0 0.0 0.0 0.00 0.00 0.00 71 1007.9
20260505053551 49 0 0.0 0.0 0.00 0.00 0.00 70 1007.9
20260505053052 49 0 0.0 0.0 0.00 0.00 0.00 70 1007.8
20260505052551 49 0 0.0 0.0 0.00 0.00 0.00 69 1007.7
20260505052051 50 0 0.0 0.0 0.00 0.00 0.00 69 1007.8
20260505051610 49 0 0.0 0.0 0.00 0.00 0.00 68 1007.7
20260505051051 50 0 0.0 0.0 0.00 0.00 0.00 67 1007.7
20260505050551 51 0 0.0 0.0 0.00 0.00 0.00 66 1007.7
20260505041556 55 0 0.0 0.0 0.00 0.00 0.00 56 1007.6
20260505041051 55 0 0.0 0.0 0.00 0.00 0.00 56 1007.6
20260505040551 55 0 0.0 1.0 0.00 0.00 0.00 56 1007.5
20260505040057 55 0 0.0 1.0 0.00 0.00 0.00 57 1007.5
20260505035551 54 0 0.0 2.0 0.00 0.00 0.00 58 1007.4
20260505035050 54 0 0.0 2.0 0.00 0.00 0.00 57 1007.2
20260505034552 54 0 0.0 0.0 0.00 0.00 0.00 57 1007.2
20260505034052 54 0 0.0 0.0 0.00 0.00 0.00 57 1007.3
20260505033551 55 0 0.0 0.0 0.00 0.00 0.00 57 1007.2
20260505033052 55 0 0.0 0.0 0.00 0.00 0.00 56 1007.1
20260505032552 55 0 0.0 0.0 0.00 0.00 0.00 57 1007.0
20260505032052 55 0 0.0 0.0 0.00 0.00 0.00 58 1007.0
20260505031556 55 0 0.0 2.0 0.00 0.00 0.00 58 1007.0
20260505031051 55 0 0.0 2.0 0.00 0.00 0.00 58 1007.0
20260505030551 55 0 0.0 2.0 0.00 0.00 0.00 57 1006.9
20260505030053 56 0 0.0 0.0 0.00 0.00 0.00 58 1006.8
20260505025551 56 0 0.0 0.0 0.00 0.00 0.00 56 1006.9
20260505025051 57 0 0.0 0.0 0.00 0.00 0.00 55 1006.8
20260505024558 57 0 0.0 0.0 0.00 0.00 0.00 53 1006.9
20260505024052 58 0 0.0 0.0 0.00 0.00 0.00 53 1006.9
20260505023552 58 0 0.0 0.0 0.00 0.00 0.00 52 1006.9
20260505023056 58 0 0.0 0.0 0.00 0.00 0.00 51 1006.9
20260505022552 58 0 0.0 0.0 0.00 0.00 0.00 50 1006.9
20260505022052 58 0 0.0 0.0 0.00 0.00 0.00 50 1006.9
20260505021555 58 0 0.0 0.0 0.00 0.00 0.00 49 1006.9
20260505021053 58 0 0.0 0.0 0.00 0.00 0.00 49 1006.9
20260505020551 58 0 0.0 0.0 0.00 0.00 0.00 49 1006.8
20260505020104 59 0 0.0 0.0 0.00 0.00 0.00 49 1006.9
20260505015551 59 0 0.0 0.0 0.00 0.00 0.00 49 1006.9
20260505015054 59 0 0.0 0.0 0.00 0.00 0.00 49 1006.8
20260505014557 59 0 0.0 0.0 0.00 0.00 0.00 49 1006.7
20260505014052 59 0 0.0 0.0 0.00 0.00 0.00 48 1006.8
20260505013551 59 0 0.0 0.0 0.00 0.00 0.00 47 1006.7
20260505013103 59 0 0.0 0.0 0.00 0.00 0.00 47 1006.7
20260505012551 59 0 0.0 0.0 0.00 0.00 0.00 47 1006.5
20260505012053 59 0 0.0 0.0 0.00 0.00 0.00 47 1006.6
20260505011555 60 0 0.0 0.0 0.00 0.00 0.00 46 1006.6
20260505011051 60 0 0.0 0.0 0.00 0.00 0.00 46 1006.5
20260505010551 60 0 0.0 0.0 0.00 0.00 0.00 45 1006.4
20260505010110 60 0 0.0 0.0 0.00 0.00 0.00 45 1006.4
20260505005552 61 0 0.0 0.0 0.00 0.00 0.00 44 1006.4
20260505005052 61 0 0.0 0.0 0.00 0.00 0.00 43 1006.3
20260505004551 61 0 0.0 0.0 0.00 0.00 0.00 43 1006.3
20260505004051 62 0 0.0 0.0 0.00 0.00 0.00 42 1006.1
20260505003551 62 0 0.0 0.0 0.00 0.00 0.00 42 1006.1
20260505003057 62 0 0.0 0.0 0.00 0.00 0.00 41 1006.0
20260505002551 63 0 0.0 0.0 0.00 0.00 0.00 41 1006.0
20260505002050 63 0 0.0 0.0 0.00 0.00 0.00 40 1006.1
20260505001603 63 0 0.0 0.0 0.00 0.00 0.00 40 1005.9
20260505001050 64 0 0.0 3.0 0.00 0.00 0.00 39 1005.7
20260505000554 64 0 0.0 3.0 0.00 0.00 0.00 39 1005.7
20260505000057 64 0 0.0 3.0 0.00 0.00 0.00 38 1005.5
20260504235551 65 0 0.0 1.0 0.00 0.00 0.00 38 1005.5
20260504235052 65 0 0.0 4.0 0.00 0.00 0.00 37 1005.4
20260504234550 65 0 0.0 4.0 0.00 0.00 0.00 37 1005.2
20260504234052 65 0 0.0 7.0 0.00 0.00 0.00 36 1005.3
20260504233550 66 0 0.0 7.0 0.00 0.00 0.00 36 1005.4
20260504233106 66 0 0.0 3.0 0.00 0.00 0.00 36 1005.3
20260504232554 66 0 0.0 3.0 0.00 0.00 0.00 35 1005.1
20260504232050 66 0 0.0 8.0 0.00 0.00 0.00 36 1005.1
20260504231551 66 0 0.0 8.0 0.00 0.00 0.00 35 1005.0
20260504231050 67 0 0.0 4.0 0.00 0.00 0.00 34 1004.8
20260504230548 67 0 0.0 13.0 0.00 0.00 0.00 35 1004.9
20260504230057 67 0 5.0 13.0 0.00 0.00 0.00 34 1004.9
20260504225550 67 0 0.0 13.0 0.00 0.00 0.00 34 1004.9
20260504225047 67 262 0.0 12.0 0.00 0.00 0.00 34 1004.8
20260504224551 68 0 1.0 12.0 0.00 0.00 0.00 33 1004.8
20260504224048 68 0 0.0 13.0 0.00 0.00 0.00 33 1004.8
20260504223549 68 344 0.0 13.0 0.00 0.00 0.00 33 1004.8
20260504223053 68 0 4.0 13.0 0.00 0.00 0.00 32 1004.7
20260504222552 68 0 0.0 13.0 0.00 0.00 0.00 32 1004.7
20260504222053 68 321 0.0 9.0 0.00 0.00 0.00 33 1004.6
20260504221550 69 0 0.0 10.0 0.00 0.00 0.00 33 1004.4
20260504221051 69 0 1.0 14.0 0.00 0.00 0.00 33 1004.4
20260504220548 68 315 0.0 17.0 0.00 0.00 0.00 33 1004.4
20260504220056 68 0 3.0 17.0 0.00 0.00 0.00 32 1004.3
20260504215548 68 0 1.0 19.0 0.00 0.00 0.00 33 1004.6